Flag for Switzerland Weather past 2 weeks in Kriens, Lucerne, Switzerland

Now
30 °F

Chilly.


Feels Like: 30 °F
Forecast: 22 / 44 °F
Wind: 2 mph from Southwest

Location: Giswil

Current Time: Mar 5, 2015 at 10:03:36 PM

Latest Report: Mar 5, 2015 at 9:00 PM


Visibility: N/A

Pressure: 30.67 "Hg

Humidity: 86%

Dew point: 27 °F

Location of KriensLocation

Historic Weather in Kriens — Graph

°F

Kriens temperature yesterday

Maximum temperature yesterday: 44 °F (at 2:00 AM)
Minimum temperature yesterday: 33 °F (at 9:00 AM)
Average temperature yesterday: 37 °F

Past Weeks' High & Low Weather Summary

 TemperatureHumidityPressure
High53 °F (Mar 2, 1:00 PM)100% (Feb 19, 2:00 AM)30.68 "Hg (Feb 19, 2:00 AM)
Low20 °F (Feb 20, 6:00 AM)31% (Feb 26, 4:00 PM)29.59 "Hg (Feb 21, 3:00 PM)
Average35 °F87%30.10 "Hg
* Reported Feb 18 8:00 PM — Mar 5 8:00 PM, Kriens, Weather by CustomWeather, © 2015

Note: Actual official high and low records may vary slightly from our data, if they occured in-between our weather recording intervals... More about our weather records

Advertising

Kriens weather history for previous 24 hours

 ConditionsComfort  
Time TempWeatherWind HumidityBarometerVisibility
8:00 PM
Thu, Mar 5
33 °FChilly.3 mph76%30.66 "HgN/A
7:00 PM36 °FChilly.2 mph72%30.64 "HgN/A
6:00 PM40 °FChilly.2 mph53%30.61 "HgN/A
5:00 PM41 °FQuite cool.3 mph54%30.59 "HgN/A
4:00 PM41 °FQuite cool.3 mph53%30.59 "HgN/A
3:00 PM40 °FQuite cool.6 mph62%30.60 "HgN/A
2:00 PM41 °FQuite cool.7 mph57%30.59 "HgN/A
1:00 PM40 °FChilly.6 mph60%30.60 "HgN/A
12:00 PM39 °FChilly.7 mph68%30.61 "HgN/A
11:00 AM37 °FChilly.7 mph72%30.61 "HgN/A
10:00 AM35 °FChilly.1 mph84%30.61 "HgN/A
9:00 AM34 °FChilly.2 mph92%30.61 "HgN/A
8:00 AM32 °FChilly.1 mph99%30.60 "HgN/A
7:00 AM32 °FChilly.1 mph99%30.59 "HgN/A
6:00 AM33 °FChilly.1 mph96%30.58 "HgN/A
5:00 AM32 °FChilly.1 mph99%30.58 "HgN/A
3:00 AM31 °FChilly.3 mph98%30.57 "HgN/A
2:00 AM33 °FChilly.1 mph99%30.57 "HgN/A
1:00 AM34 °FChilly.2 mph92%30.55 "HgN/A
12:00 AM33 °FChilly.1 mph98%30.54 "HgN/A
11:00 PM
Wed, Mar 4
34 °FChilly.1 mph97%30.53 "HgN/A
Weather by CustomWeather, © 2015

See weather overviewHow to use our weather pages